[[{"header":{"parameterUnit":"m.s-1","parameterCategory":1,"la1":30.2991,"la2":30.254,"lo1":-89.0895,"lo2":-89.0444,"dy":0.0017,"dx":0.0017,"nx":28,"ny":28,"refTime":"2025-07-24T09:00:00:Z","depth":0,"parameterNumber":2,"parameterNumberName":"U-component_of_WINDS"},"data":[0,0,0,0,0,0,0,0,0,0,0,0,0,0,0,0,0,0,0,0,0,0,0,0,0,0,0,0,0,0,0,0,0,0,0,0,0,0,0,0,0,0,0,0,0,0,0,0,0,0,0,0,0,0,0,0,0,0,1.0257,1.0256,0,1.0195,1.0195,1.0194,1.0166,1.0166,1.0166,1.0166,1.0099,1.0097,1.0096,0,0,0,0,0,0,0,0,0,0,0,0,0,1.0344,1.0343,1.0257,1.0256,1.0255,1.0196,1.0195,1.0194,1.0166,1.0166,1.0166,1.0166,1.01,1.0098,1.0095,0,0,0,0,0,0,0,0,0,0,0,0,0,1.0297,1.0343,1.0257,1.0234,1.0231,1.0196,1.0195,1.0194,1.0166,1.0166,1.0166,1.0166,1.01,1.0098,1.0095,1.0076,0,0,1.0087,1.0086,0,0,0,0,0,0,0,0,1.03,1.0294,1.0238,1.0236,1.0232,1.0188,1.0201,1.0154,1.0166,1.019,1.0166,1.0166,1.0128,1.0123,1.0112,1.0073,1.0071,1.0086,1.0085,1.0084,1.0083,0,0,0,0,0,0,0,1.0303,1.0296,1.0232,1.0237,1.0234,1.0225,1.0219,1.0192,1.016,1.0188,1.0186,1.0179,1.0127,1.0114,1.011,1.007,1.0087,1.0084,1.0082,1.0081,1.001,1.001,0,0,0,0,0,0,1.0311,1.0299,1.0234,1.0231,1.0267,1.0224,1.0216,1.0202,1.016,1.0154,1.0179,1.0178,1.0119,1.0113,1.0107,1.0081,1.0084,1.0081,1.008,1.001,1.001,1.001,0,0,0,0,0,0,1.0313,1.0305,1.0237,1.0264,1.0255,1.0222,1.0207,1.0201,1.0189,1.0153,1.0147,1.0173,1.0119,1.0111,1.0084,1.0079,1.008,1.0077,1.0011,1.001,1.001,1.003,0,0,0,0,0,0,1.0315,1.0306,1.03,1.0264,1.0254,1.0216,1.0206,1.02,1.0184,1.0182,1.0145,1.0139,1.0118,1.0088,1.0081,1.0075,1.0075,1.0011,1.001,1.001,1.003,1.003,1.0031,0,0,0,0,0,1.0319,1.0308,1.03,1.0292,1.0246,1.0216,1.021,1.0187,1.0184,1.0177,1.0154,1.014,1.0081,1.0086,1.0078,1.007,1.0011,1.0011,1.001,1.0029,1.003,1.0031,0,0,0,0,0,0,1.0343,1.0303,1.0294,1.0271,1.0247,1.0211,1.0201,1.0189,1.0164,1.0163,1.0135,1.0127,1.0101,1.0083,1.009,1.0049,1.0044,1.0042,1.0062,1.0062,1.0063,1.0067,1.0073,0,0,0,0,0,1.0346,1.0327,1.0292,1.0275,1.0264,1.0235,1.0221,1.0206,1.0179,1.0169,1.0144,1.0117,1.0092,1.0076,1.0051,1.0027,1.0017,1.0017,1.0018,1.0019,1.0017,1.0,0.9999,1.0008,1.0008,1.0008,0,0,1.0351,1.0327,1.0316,1.028,1.0259,1.0238,1.0226,1.0205,1.0189,1.0165,1.0138,1.0118,1.0087,1.006,1.0047,1.0044,1.0012,1.0018,1.0019,1.0016,1.0,0.9999,0.9998,1.0008,1.0008,1.0008,0,0,1.035,1.0331,1.0314,1.0294,1.0263,1.0244,1.024,1.0205,1.0192,1.0164,1.0145,1.0124,1.0082,1.006,1.0043,1.0032,1.0018,1.0025,1.0028,1.0012,1.0011,1.001,1.0004,1.0003,1.0023,1.0023,1.0023,0,1.0361,1.033,1.0307,1.0286,1.027,1.0248,1.0229,1.021,1.0173,1.0161,1.0158,1.0104,1.0081,1.0048,1.0046,1.0033,1.0026,1.0029,1.0013,1.0012,1.0011,1.0005,1.0003,1.0024,1.0024,1.0024,1.0024,0,1.0343,1.0322,1.0312,1.0277,1.0259,1.0239,1.0212,1.0196,1.0182,1.0162,1.0133,1.0105,1.0073,1.0064,1.0049,1.0028,1.0027,1.0019,1.0014,1.0012,1.0005,1.0003,1.0025,1.0025,1.0025,1.0024,0,0,1.0357,1.0308,1.0305,1.0288,1.0252,1.0234,1.0212,1.0182,1.0168,1.0143,1.0123,1.0087,1.0079,1.006,1.0043,1.0029,1.0019,1.0022,1.0021,1.0022,0.9992,0.9997,0.9995,1.001,1.001,1.0009,0.9994,0,1.035,1.0312,1.029,1.026,1.0239,1.0217,1.0198,1.0172,1.0153,1.013,1.0108,1.0083,1.0075,1.0063,1.0048,1.0024,1.0013,1.0025,0.9989,0.9988,0.9997,0.9992,0.9998,0.9985,0.9991,0.9991,0.9991,0,1.0337,1.0312,1.0281,1.0245,1.0236,1.0219,1.0189,1.0168,1.0138,1.0124,1.0103,1.0085,1.0059,1.0056,1.0019,1.0028,1.0012,0.9997,0.9996,0.9991,0.9989,0.9986,0.998,0.9978,0.9987,0.9987,0.9988,0,1.0348,1.0307,1.0282,1.0269,1.0227,1.0216,1.0197,1.0168,1.015,1.0123,1.0111,1.0081,1.0064,1.004,1.0013,1.0014,0.9978,0.9974,0.9964,0.9965,0.9957,0.9958,0.9948,0.9949,0.9949,0.9949,0.9949,0,1.0342,1.0324,1.0286,1.0271,1.0249,1.0222,1.02,1.018,1.0153,1.0132,1.0111,1.0091,1.0059,1.0034,1.0013,0.9984,0.9977,0.9964,0.9958,0.9965,0.9967,0.9954,0.9954,0.9948,0.9949,0.9949,0.9949,0,1.0351,1.0326,1.0297,1.026,1.025,1.0235,1.0202,1.0185,1.0164,1.0138,1.013,1.0096,1.0066,1.0038,0.9997,0.9983,0.9954,0.9947,0.9964,0.9961,0.9953,0.9953,0.9933,0.9928,0.9934,0.9934,0.9934,0,1.0349,1.0334,1.0295,1.028,1.0262,1.0238,1.022,1.0193,1.0175,1.0138,1.0125,1.0094,1.0067,1.002,0.9991,0.9959,0.9951,0.9946,0.9946,0.9952,0.9949,0.995,0.9947,0.9946,0.9946,0.9946,0.9946,0,1.0347,1.0335,1.031,1.0281,1.026,1.0236,1.021,1.0198,1.0166,1.0146,1.0115,1.0095,1.0053,1.0022,0.9986,0.9966,0.995,0.9947,0.9942,0.9949,0.9959,0.9952,0.9964,0.9947,0.9947,0.9947,0.9947,0.9947,1.0349,1.0334,1.0304,1.0276,1.0254,1.0231,1.0213,1.0189,1.0164,1.0128,1.0113,1.0082,1.005,1.0001,0.998,0.9954,0.995,0.9945,0.9943,0.9942,0.9942,0.9964,0.9947,0.9947,0.9947,0.9947,0.9947,0,1.0344,1.0324,1.0299,1.0264,1.0242,1.023,1.0201,1.0183,1.0156,1.0128,1.0102,1.0065,1.0034,1.0002,0.9968,0.9953,0.9945,0.9945,0.9945,0.994,0.9948,0.9955,0.9952,0.9952,0.9952,0.9952,0.9952,0.9952,1.034,1.0313,1.0297,1.0258,1.0237,1.0207,1.019,1.0168,1.0145,1.0106,1.008,1.0059,1.0029,0.9992,0.9962,0.9953,0.9941,0.9943,0.9932,0.994,0.994,0.994,0.9946,0.9941,0.9941,0.9926,0.9926,0.9926]},{"header":{"parameterUnit":"m.s-1","parameterCategory":1,"la1":30.2991,"la2":30.254,"lo1":-89.0895,"lo2":-89.0444,"dy":0.0017,"dx":0.0017,"nx":28,"ny":28,"refTime":"2025-07-24T09:00:00:Z","depth":0,"parameterNumber":3,"parameterNumberName":"V-component_of_WINDS"},"data":[0,0,0,0,0,0,0,0,0,0,0,0,0,0,0,0,0,0,0,0,0,0,0,0,0,0,0,0,0,0,0,0,0,0,0,0,0,0,0,0,0,0,0,0,0,0,0,0,0,0,0,0,0,0,0,0,0,0,-2.1641,-2.1641,0,-2.1664,-2.1664,-2.1664,-2.1613,-2.1612,-2.161,-2.1608,-2.163,-2.1632,-2.1634,0,0,0,0,0,0,0,0,0,0,0,0,0,-2.1553,-2.1555,-2.1641,-2.1641,-2.1641,-2.1664,-2.1664,-2.1664,-2.1613,-2.1611,-2.161,-2.1608,-2.1629,-2.1632,-2.1634,0,0,0,0,0,0,0,0,0,0,0,0,0,-2.1585,-2.1556,-2.1641,-2.1619,-2.1617,-2.1663,-2.1664,-2.1664,-2.1614,-2.1611,-2.1609,-2.1607,-2.1629,-2.1632,-2.1635,-2.1703,0,0,-2.1644,-2.1646,0,0,0,0,0,0,0,0,-2.1583,-2.1588,-2.1622,-2.162,-2.1619,-2.1633,-2.1641,-2.1677,-2.1615,-2.1615,-2.1608,-2.1606,-2.1633,-2.1636,-2.1645,-2.1704,-2.1705,-2.1645,-2.1646,-2.1648,-2.1649,0,0,0,0,0,0,0,-2.1581,-2.1587,-2.165,-2.1622,-2.162,-2.1608,-2.161,-2.1647,-2.1637,-2.1615,-2.1611,-2.1615,-2.1632,-2.1642,-2.1645,-2.1705,-2.1644,-2.1647,-2.1649,-2.165,-2.1822,-2.1825,0,0,0,0,0,0,-2.1582,-2.1586,-2.1649,-2.165,-2.1595,-2.1611,-2.1613,-2.1631,-2.1637,-2.1635,-2.1617,-2.1612,-2.1638,-2.1642,-2.1646,-2.1727,-2.1648,-2.1651,-2.1653,-2.182,-2.1823,-2.1826,0,0,0,0,0,0,-2.158,-2.1588,-2.1648,-2.1617,-2.1624,-2.1615,-2.1636,-2.1633,-2.1643,-2.1638,-2.1636,-2.163,-2.1636,-2.1641,-2.1689,-2.1727,-2.1652,-2.1655,-2.1816,-2.1821,-2.1824,-2.1889,0,0,0,0,0,0,-2.1578,-2.1588,-2.1614,-2.1618,-2.1626,-2.1692,-2.1638,-2.1635,-2.1649,-2.1643,-2.165,-2.1648,-2.1635,-2.1685,-2.1693,-2.173,-2.1657,-2.1813,-2.1818,-2.1823,-2.1884,-2.1895,-2.1905,0,0,0,0,0,-2.1575,-2.163,-2.1615,-2.1623,-2.1658,-2.1694,-2.1698,-2.1682,-2.1652,-2.1678,-2.1675,-2.1648,-2.1722,-2.169,-2.1698,-2.1737,-2.1811,-2.1817,-2.1823,-2.1879,-2.1893,-2.1905,0,0,0,0,0,0,-2.1629,-2.163,-2.1614,-2.1672,-2.1684,-2.1685,-2.1717,-2.1697,-2.1716,-2.171,-2.1689,-2.169,-2.1743,-2.1745,-2.171,-2.1804,-2.1761,-2.1769,-2.1801,-2.1814,-2.1825,-2.1823,-2.166,0,0,0,0,0,-2.1649,-2.1678,-2.1677,-2.1729,-2.1736,-2.1726,-2.1741,-2.1728,-2.1738,-2.1743,-2.1743,-2.1754,-2.178,-2.1797,-2.182,-2.1884,-2.1885,-2.1915,-2.1925,-2.1934,-2.1941,-2.1976,-2.1989,-2.1846,-2.1846,-2.1845,0,0,-2.1688,-2.1692,-2.1712,-2.174,-2.1747,-2.1779,-2.173,-2.1765,-2.1788,-2.1748,-2.1793,-2.1794,-2.1805,-2.1862,-2.1887,-2.1865,-2.1981,-2.1941,-2.1948,-2.1951,-2.1984,-2.1997,-2.2009,-2.185,-2.1849,-2.1848,0,0,-2.1775,-2.1781,-2.1826,-2.1834,-2.1846,-2.184,-2.1851,-2.1856,-2.1855,-2.1901,-2.1872,-2.1899,-2.1943,-2.1953,-2.1963,-2.2057,-2.2033,-2.2065,-2.2119,-2.2154,-2.2165,-2.2175,-2.2209,-2.2222,-2.2072,-2.2072,-2.2072,0,-2.1822,-2.1869,-2.1851,-2.1888,-2.1902,-2.1868,-2.1913,-2.1922,-2.1941,-2.1951,-2.1927,-2.1983,-2.1988,-2.2047,-2.207,-2.2079,-2.2091,-2.2064,-2.2165,-2.2175,-2.2184,-2.2216,-2.2229,-2.2076,-2.2075,-2.2075,-2.2075,0,-2.1926,-2.1959,-2.1993,-2.2014,-2.2031,-2.2072,-2.2061,-2.2081,-2.2066,-2.2062,-2.211,-2.2115,-2.2139,-2.2152,-2.2138,-2.221,-2.2196,-2.2169,-2.2125,-2.2202,-2.2232,-2.2244,-2.2081,-2.208,-2.2079,-2.2078,0,0,-2.2048,-2.2059,-2.2072,-2.2082,-2.2093,-2.2118,-2.2158,-2.2183,-2.2201,-2.2215,-2.2248,-2.2287,-2.2263,-2.2275,-2.2261,-2.2292,-2.2366,-2.2261,-2.226,-2.2281,-2.2447,-2.2468,-2.2483,-2.2351,-2.2353,-2.2355,-2.2447,0,-2.2135,-2.2205,-2.2191,-2.2258,-2.2289,-2.2258,-2.2293,-2.2304,-2.2302,-2.2327,-2.2324,-2.2353,-2.2317,-2.2325,-2.2353,-2.2351,-2.24,-2.2344,-2.2382,-2.2383,-2.2381,-2.2498,-2.252,-2.2607,-2.2458,-2.246,-2.2461,0,-2.2246,-2.2267,-2.2338,-2.2346,-2.2358,-2.239,-2.2412,-2.2437,-2.2449,-2.2445,-2.246,-2.2441,-2.2481,-2.2437,-2.2492,-2.2454,-2.2469,-2.247,-2.2473,-2.2476,-2.2427,-2.2505,-2.2634,-2.2647,-2.248,-2.2478,-2.2477,0,-2.2329,-2.2374,-2.2423,-2.2432,-2.2442,-2.2465,-2.2471,-2.248,-2.2497,-2.2516,-2.2527,-2.255,-2.2563,-2.2582,-2.257,-2.2538,-2.2627,-2.2581,-2.2625,-2.2626,-2.2646,-2.2645,-2.2779,-2.2654,-2.2654,-2.2654,-2.2653,0,-2.2429,-2.2474,-2.246,-2.2491,-2.254,-2.2524,-2.2574,-2.2575,-2.2585,-2.2614,-2.2589,-2.2617,-2.2599,-2.2627,-2.2618,-2.2665,-2.2671,-2.2669,-2.2666,-2.2672,-2.2672,-2.2681,-2.2675,-2.2657,-2.2656,-2.2656,-2.2655,0,-2.2529,-2.2522,-2.2574,-2.258,-2.2583,-2.2619,-2.2625,-2.2653,-2.2649,-2.2688,-2.2696,-2.269,-2.2721,-2.2711,-2.2743,-2.2737,-2.2798,-2.2787,-2.2795,-2.2792,-2.2837,-2.2833,-2.2982,-2.3001,-2.2864,-2.2865,-2.2866,0,-2.2593,-2.2628,-2.2638,-2.2657,-2.2665,-2.2695,-2.2712,-2.2697,-2.2716,-2.2733,-2.276,-2.2789,-2.2811,-2.2862,-2.286,-2.2886,-2.2876,-2.2926,-2.2879,-2.2884,-2.2878,-2.2876,-2.288,-2.2936,-2.2937,-2.2938,-2.2939,0,-2.2708,-2.2704,-2.2729,-2.2755,-2.2776,-2.2795,-2.2811,-2.2828,-2.2815,-2.2837,-2.2869,-2.2887,-2.2921,-2.295,-2.2974,-2.2979,-2.2958,-2.2954,-2.2966,-2.2972,-2.2976,-2.2976,-2.2821,-2.2951,-2.295,-2.2949,-2.2948,-2.2948,-2.2793,-2.2823,-2.2836,-2.2866,-2.2877,-2.2893,-2.2921,-2.2921,-2.2948,-2.2975,-2.2965,-2.3002,-2.3014,-2.3044,-2.3052,-2.3081,-2.3061,-2.3078,-2.3082,-2.3087,-2.3093,-2.2971,-2.3085,-2.3085,-2.3084,-2.3084,-2.3084,0,-2.2908,-2.2915,-2.2943,-2.2967,-2.2991,-2.297,-2.2987,-2.3009,-2.3042,-2.3056,-2.3079,-2.3116,-2.3145,-2.3146,-2.3173,-2.3196,-2.3187,-2.3204,-2.3202,-2.3204,-2.3109,-2.3096,-2.3211,-2.3211,-2.3211,-2.3211,-2.3211,-2.3211,-2.297,-2.3019,-2.3017,-2.3072,-2.3078,-2.3115,-2.3127,-2.3142,-2.3153,-2.3197,-2.3221,-2.3222,-2.3231,-2.3259,-2.3284,-2.3284,-2.3295,-2.3316,-2.3312,-2.3223,-2.3211,-2.3198,-2.3187,-2.3319,-2.3319,-2.3405,-2.3406,-2.3407]}]]